Temp
-9 -9 -9 -8 -8 -8 -9 -9 -9 -10 -10 -10 -10 -10 -10 -10 -10 -10 -10 -10 -10 -10 -10 -10 -10 -9 -9 -9 -9 -9 -9 -8 -8 -8 -7 -7 -7 -7 -7 -7 -8 -8 -8 -8 -8
-9 -9 -9 -8 -8 -8 -9 -9 -9 -9 -10 -10 -10 -10 -9 -10 -10 -10 -10 -10 -10 -10 -10 -10 -9 -9 -9 -9 -9 -8 -8 -8 -7 -7 -7 -7 -7 -7 -7 -8 -8 -8 -8 -8 -8
-9 -9 -9 -9 -9 -8 -8 -9 -9 -9 -9 -9 -10 -9 -10 -9 -9 -10 -10 -10 -10 -10 -10 -9 -9 -9 -9 -8 -8 -7 -7 -7 -7 -7 -7 -7 -7 -7 -8 -8 -8 -8 -8 -8 -8
-9 -9 -9 -9 -9 -8 -8 -8 -9 -9 -9 -9 -9 -9 -9 -9 -9 -9 -9 -10 -9 -10 -10 -9 -9 -9 -8 -8 -7 -7 -7 -7 -7 -7 -7 -7 -7 -7 -8 -8 -8 -8 -8 -8 -8
-9 -9 -9 -9 -9 -9 -8 -8 -9 -9 -9 -9 -9 -9 -9 -9 -9 -9 -9 -9 -9 -9 -9 -9 -8 -8 -8 -8 -7 -7 -7 -7 -7 -7 -7 -7 -7 -7 -7 -8 -8 -8 -8 -8 -8
-9 -9 -9 -9 -9 -9 -8 -8 -8 -9 -9 -9 -9 -9 -9 -9 -9 -9 -9 -9 -9 -9 -9 -9 -9 -9 -8 -7 -7 -7 -7 -7 -7 -7 -7 -7 -7 -7 -7 -7 -7 -8 -8 -8 -8
-9 -9 -9 -9 -9 -9 -8 -9 -8 -8 -8 -9 -9 -9 -8 -9 -9 -9 -9 -9 -9 -9 -9 -9 -9 -9 -8 -8 -7 -7 -7 -7 -7 -7 -7 -7 -7 -7 -7 -7 -7 -7 -7 -7 -8
-9 -9 -9 -9 -9 -8 -8 -8 -8 -8 -8 -8 -9 -9 -8 -8 -8 -8 -8 -8 -9 -8 -8 -8 -9 -8 -8 -8 -8 -7 -7 -7 -7 -7 -7 -7 -7 -7 -7 -7 -7 -7 -7 -7 -7
-8 -9 -9 -9 -9 -8 -8 -8 -8 -8 -8 -8 -9 -9 -8 -8 -8 -8 -8 -8 -8 -8 -8 -8 -8 -8 -8 -8 -7 -7 -7 -7 -7 -7 -7 -7 -7 -7 -7 -7 -7 -7 -7 -7 -7
-8 -9 -9 -8 -8 -8 -8 -8 -8 -8 -8 -8 -8 -8 -8 -8 -8 -8 -8 -8 -8 -8 -8 -8 -8 -8 -8 -7 -7 -7 -7 -7 -7 -7 -7 -7 -6 -6 -6 -6 -6 -6 -6 -6 -6
-8 -8 -9 -8 -8 -8 -8 -8 -8 -8 -8 -8 -8 -8 -8 -8 -7 -7 -7 -7 -7 -8 -8 -7 -7 -7 -7 -7 -7 -7 -7 -7 -7 -6 -6 -6 -6 -6 -6 -6 -6 -6 -6 -6 -6
-8 -8 -8 -8 -8 -8 -8 -8 -8 -8 -8 -8 -8 -8 -8 -8 -7 -7 -7 -7 -7 -7 -7 -7 -7 -7 -7 -7 -7 -6 -6 -6 -6 -6 -6 -6 -5 -6 -6 -6 -6 -6 -6 -6 -6
-8 -7 -8 -8 -8 -8 -8 -8 -8 -8 -8 -8 -7 -7 -7 -7 -7 -6 -7 -7 -7 -7 -7 -7 -7 -6 -6 -6 -6 -6 -6 -6 -5 -5 -5 -5 -5 -5 -5 -6 -6 -6 -6 -6 -6
-7 -7 -7 -8 -8 -8 -8 -8 -8 -8 -7 -8 -8 -7 -7 -7 -7 -6 -6 -6 -6 -6 -6 -6 -6 -6 -6 -6 -6 -6 -6 -5 -5 -5 -5 -5 -5 -5 -5 -6 -6 -6 -6 -6 -6
-7 -7 -7 -7 -8 -7 -8 -8 -8 -8 -7 -7 -7 -7 -7 -7 -7 -6 -6 -6 -6 -6 -6 -6 -5 -5 -5 -5 -5 -5 -5 -5 -5 -5 -5 -5 -5 -5 -6 -6 -6 -6 -6 -6 -6
-6 -6 -7 -6 -6 -7 -7 -7 -7 -7 -6 -6 -6 -6 -6 -6 -6 -6 -6 -6 -6 -6 -5 -6 -5 -6 -5 -5 -5 -5 -5 -5 -5 -5 -5 -5 -5 -5 -6 -6 -6 -6 -6 -6 -6
-5 -6 -6 -6 -6 -6 -6 -6 -5 -5 -5 -5 -5 -6 -6 -5 -6 -6 -5 -5 -5 -5 -5 -5 -5 -5 -5 -5 -5 -5 -5 -5 -5 -6 -6 -6 -6 -6 -6 -6 -6 -6 -6 -6 -6
-5 -5 -6 -6 -6 -5 -5 -5 -5 -5 -5 -5 -5 -5 -5 -5 -5 -5 -5 -5 -5 -5 -5 -5 -5 -5 -5 -5 -5 -5 -5 -5 -5 -5 -5 -6 -6 -6 -6 -6 -6 -6 -6 -6 -6
-6 -5 -6 -5 -5 -5 -5 -4 -5 -6 -5 -5 -5 -5 -5 -5 -5 -5 -5 -5 -5 -5 -5 -5 -5 -5 -5 -5 -5 -5 -5 -5 -5 -5 -6 -6 -6 -6 -6 -6 -6 -6 -6 -6 -6
-6 -6 -6 -5 -5 -4 -4 -4 -5 -6 -6 -6 -5 -5 -5 -5 -5 -5 -5 -5 -5 -5 -5 -5 -5 -5 -5 -5 -5 -5 -5 -5 -5 -5 -6 -6 -6 -6 -6 -6 -6 -6 -6 -6 -6
-6 -6 -7 -5 -5 -4 -4 -4 -5 -6 -6 -6 -6 -5 -5 -5 -5 -5 -5 -5 -5 -5 -5 -5 -5 -5 -5 -5 -5 -5 -5 -5 -6 -6 -6 -6 -6 -6 -6 -6 -6 -6 -6 -6 -6
-6 -6 -7 -6 -5 -4 -3 -4 -6 -6 -6 -5 -5 -5 -5 -5 -5 -5 -5 -5 -5 -5 -5 -5 -5 -5 -5 -5 -5 -5 -5 -6 -6 -6 -6 -6 -6 -6 -6 -6 -6 -6 -6 -7 -7
-6 -7 -7 -6 -5 -4 -4 -5 -5 -6 -6 -6 -6 -5 -5 -5 -5 -5 -5 -5 -5 -5 -5 -5 -5 -5 -5 -5 -5 -5 -6 -6 -6 -6 -6 -6 -6 -6 -6 -6 -7 -6 -7 -7 -7
-6 -6 -6 -5 -5 -5 -5 -5 -5 -6 -6 -6 -6 -6 -6 -5 -5 -5 -6 -6 -6 -6 -6 -6 -5 -5 -5 -6 -6 -6 -6 -6 -5 -6 -6 -6 -6 -6 -6 -6 -7 -7 -7 -7 -7
-7 -6 -5 -5 -4 -5 -5 -5 -6 -5 -6 -6 -6 -6 -6 -7 -6 -6 -6 -6 -6 -6 -6 -5 -5 -6 -6 -6 -6 -6 -6 -6 -6 -6 -6 -7 -7 -7 -6 -6 -7 -7 -7 -7 -7
-7 -7 -6 -5 -6 -6 -7 -5 -5 -6 -6 -5 -5 -7 -7 -7 -7 -7 -8 -7 -7 -7 -6 -6 -6 -6 -6 -6 -6 -6 -6 -6 -6 -6 -6 -7 -7 -8 -6 -6 -7 -7 -7 -8 -8
-7 -6 -6 -6 -7 -6 -5 -5 -6 -7 -7 -7 -7 -7 -7 -8 -8 -8 -7 -7 -7 -7 -7 -6 -6 -7 -6 -6 -6 -5 -6 -6 -6 -6 -7 -6 -7 -7 -7 -7 -7 -8 -8 -8 -8
Height
5876 5875 5873 5874 5876 5878 5880 5882 5884 5885 5887 5888 5890 5891 5891 5891 5892 5891 5890 5890 5888 5886 5884 5883 5883 5883 5883 5883 5885 5886 5887 5888 5891 5894 5897 5899 5900 5902 5904 5905 5905 5906 5906 5906 5906
5877 5876 5876 5877 5878 5880 5881 5883 5884 5886 5888 5889 5891 5892 5892 5893 5893 5893 5893 5891 5891 5889 5887 5886 5885 5885 5885 5886 5888 5889 5890 5892 5895 5897 5899 5901 5903 5905 5907 5907 5908 5908 5908 5907 5907
5878 5878 5878 5879 5880 5881 5883 5884 5885 5887 5888 5890 5891 5893 5893 5894 5895 5895 5894 5894 5893 5891 5890 5889 5887 5887 5888 5890 5891 5892 5894 5896 5898 5900 5902 5904 5906 5907 5908 5909 5910 5909 5909 5908 5908
5878 5879 5879 5880 5881 5882 5883 5885 5886 5887 5889 5891 5892 5893 5894 5895 5897 5896 5896 5896 5896 5894 5893 5892 5890 5891 5893 5894 5895 5896 5897 5899 5902 5903 5905 5906 5908 5909 5909 5910 5910 5910 5910 5909 5910
5877 5879 5880 5881 5881 5883 5883 5885 5887 5888 5889 5891 5892 5893 5894 5896 5896 5897 5897 5898 5898 5897 5896 5895 5894 5895 5896 5898 5898 5899 5901 5903 5905 5906 5907 5908 5909 5909 5910 5910 5911 5911 5911 5911 5911
5876 5877 5879 5880 5881 5883 5884 5884 5886 5888 5890 5891 5892 5893 5895 5896 5897 5897 5898 5899 5899 5899 5899 5898 5897 5899 5900 5900 5902 5903 5904 5905 5907 5908 5909 5910 5910 5910 5911 5911 5912 5912 5912 5912 5912
5874 5875 5877 5879 5880 5882 5883 5884 5886 5887 5889 5890 5891 5892 5894 5896 5897 5898 5899 5899 5900 5901 5901 5900 5900 5902 5903 5903 5904 5905 5906 5907 5908 5909 5910 5911 5912 5912 5912 5912 5913 5913 5913 5913 5912
5871 5873 5875 5877 5879 5880 5881 5883 5885 5886 5888 5890 5891 5892 5893 5894 5896 5897 5899 5900 5901 5902 5902 5902 5902 5904 5905 5906 5906 5907 5908 5908 5910 5910 5912 5913 5914 5913 5914 5914 5914 5914 5914 5914 5913
5869 5870 5872 5875 5877 5878 5879 5881 5883 5885 5886 5888 5890 5891 5892 5893 5894 5895 5897 5900 5900 5902 5903 5903 5904 5905 5907 5907 5909 5909 5910 5910 5912 5913 5913 5915 5915 5915 5915 5915 5915 5915 5915 5914 5913
5868 5869 5870 5873 5875 5877 5878 5879 5882 5884 5886 5887 5888 5890 5890 5892 5893 5894 5896 5899 5900 5902 5904 5905 5906 5907 5907 5908 5910 5911 5912 5912 5914 5916 5915 5915 5916 5916 5916 5916 5916 5915 5915 5914 5913
5867 5868 5868 5870 5873 5875 5877 5879 5882 5883 5884 5885 5887 5888 5889 5890 5891 5894 5896 5897 5900 5902 5903 5905 5906 5907 5908 5910 5911 5912 5913 5914 5915 5915 5916 5916 5916 5917 5917 5917 5917 5916 5915 5914 5913
5866 5867 5867 5869 5871 5873 5876 5877 5879 5881 5883 5883 5885 5886 5887 5889 5891 5893 5895 5898 5899 5901 5903 5905 5906 5908 5909 5910 5912 5913 5913 5914 5916 5916 5916 5917 5917 5917 5917 5917 5917 5916 5915 5914 5913
5865 5866 5866 5867 5869 5871 5873 5874 5877 5879 5881 5883 5884 5885 5887 5889 5890 5892 5895 5897 5899 5901 5903 5905 5907 5907 5909 5910 5911 5913 5914 5915 5916 5917 5917 5917 5918 5918 5918 5917 5917 5916 5915 5914 5913
5865 5865 5866 5866 5868 5868 5870 5873 5875 5877 5879 5882 5883 5884 5886 5887 5890 5892 5895 5897 5899 5901 5902 5904 5905 5907 5909 5910 5912 5914 5915 5916 5916 5917 5918 5918 5919 5918 5918 5917 5917 5917 5915 5914 5912
5862 5863 5864 5866 5864 5866 5869 5870 5872 5875 5877 5880 5881 5883 5885 5888 5889 5892 5894 5896 5898 5900 5903 5905 5906 5907 5909 5911 5913 5915 5915 5916 5917 5918 5918 5919 5919 5918 5917 5917 5917 5916 5915 5914 5913
5859 5861 5862 5863 5863 5865 5865 5867 5870 5873 5874 5877 5879 5882 5884 5886 5889 5891 5893 5896 5898 5900 5902 5904 5906 5908 5909 5911 5913 5914 5915 5916 5917 5918 5918 5919 5920 5919 5919 5919 5918 5916 5915 5914 5912
5856 5857 5859 5860 5861 5861 5863 5865 5868 5869 5875 5878 5879 5880 5882 5885 5888 5890 5893 5895 5898 5900 5902 5904 5906 5908 5910 5912 5913 5914 5915 5916 5917 5917 5918 5918 5919 5919 5918 5918 5917 5916 5914 5912 5910
5851 5853 5854 5854 5856 5857 5860 5863 5865 5869 5871 5874 5877 5880 5882 5884 5887 5890 5892 5895 5897 5899 5901 5903 5906 5907 5909 5910 5912 5913 5914 5915 5916 5916 5917 5917 5918 5918 5917 5916 5915 5914 5912 5910 5908
5842 5845 5849 5847 5850 5852 5855 5856 5864 5866 5868 5871 5875 5878 5880 5883 5886 5888 5890 5893 5895 5897 5900 5901 5903 5904 5906 5908 5911 5911 5912 5914 5914 5915 5915 5916 5916 5916 5915 5913 5912 5910 5909 5907 5906
5831 5836 5839 5838 5843 5845 5847 5853 5859 5862 5865 5868 5870 5874 5876 5880 5883 5885 5888 5891 5892 5894 5896 5898 5900 5902 5904 5906 5908 5909 5911 5912 5912 5913 5913 5914 5913 5913 5912 5910 5909 5907 5906 5904 5902
5818 5825 5826 5829 5833 5834 5839 5849 5853 5856 5860 5862 5866 5868 5872 5876 5878 5881 5885 5888 5889 5891 5893 5895 5898 5900 5901 5903 5904 5906 5907 5908 5909 5910 5910 5910 5911 5909 5908 5907 5906 5904 5903 5901 5899
5803 5810 5814 5817 5821 5824 5833 5845 5847 5847 5852 5856 5860 5864 5867 5869 5874 5876 5881 5882 5884 5887 5890 5891 5893 5894 5897 5898 5900 5902 5903 5904 5904 5906 5905 5905 5907 5905 5904 5903 5902 5900 5899 5897 5895
5785 5794 5798 5800 5802 5813 5824 5832 5837 5839 5842 5847 5852 5857 5860 5863 5868 5872 5874 5877 5879 5882 5884 5887 5889 5890 5892 5895 5897 5898 5899 5899 5900 5900 5900 5901 5901 5900 5900 5899 5897 5895 5893 5891 5889
5764 5772 5777 5781 5793 5802 5812 5819 5825 5831 5835 5838 5843 5847 5852 5856 5860 5864 5867 5871 5874 5876 5878 5879 5883 5885 5888 5889 5891 5893 5893 5894 5894 5895 5895 5896 5893 5893 5893 5894 5892 5890 5887 5886 5884
5742 5753 5761 5768 5780 5789 5798 5808 5815 5819 5823 5830 5833 5838 5844 5849 5853 5857 5860 5863 5865 5867 5871 5873 5877 5878 5880 5882 5883 5885 5886 5888 5889 5888 5889 5890 5889 5885 5884 5887 5885 5884 5882 5881 5879
5721 5734 5741 5751 5764 5771 5782 5791 5801 5807 5812 5819 5825 5834 5838 5842 5846 5851 5852 5854 5856 5859 5861 5865 5869 5870 5871 5873 5875 5876 5877 5881 5882 5882 5882 5881 5884 5878 5879 5879 5878 5878 5876 5874 5872
5701 5715 5723 5732 5743 5753 5768 5777 5787 5797 5803 5808 5815 5822 5824 5832 5835 5836 5839 5842 5844 5846 5849 5852 5857 5860 5861 5864 5864 5863 5874 5873 5874 5875 5874 5873 5877 5871 5872 5871 5871 5870 5867 5866 5863
Wind_Speed
2 4 9 12 14 15 14 14 15 16 17 17 15 12 10 8 7 8 10 12 15 14 12 12 11 11 12 12 13 16 18 19 20 22 27 29 28 25 23 21 20 20 19 18 17
3 5 10 13 14 14 14 15 15 16 17 18 15 12 10 8 6 6 8 10 12 14 13 14 15 15 15 15 18 21 23 26 28 29 29 27 25 22 20 18 18 18 17 16 15
5 7 10 11 13 13 13 14 15 16 17 16 15 12 10 7 5 5 7 8 9 13 14 15 18 18 18 21 24 27 30 29 28 26 25 23 21 18 16 16 16 15 14 14 14
5 8 11 12 13 13 13 12 14 15 15 15 14 12 9 7 7 7 7 7 8 11 15 16 20 19 20 22 26 27 27 25 23 22 21 18 16 15 13 12 12 11 13 13 13
8 9 11 13 13 13 13 13 13 14 15 14 13 12 10 9 8 7 7 7 7 9 12 16 18 18 20 22 23 23 22 21 19 18 16 15 13 11 10 10 10 10 11 10 10
13 11 12 14 14 14 14 14 13 13 13 14 14 13 12 10 9 8 7 7 6 7 9 13 16 17 18 19 19 19 18 17 16 14 12 12 10 10 9 8 9 8 9 9 9
15 15 13 15 16 16 15 14 13 13 13 14 14 14 13 12 11 10 8 7 6 6 8 11 12 14 16 17 16 16 16 14 14 13 12 11 10 9 10 10 10 9 9 8 8
14 16 17 15 16 18 17 16 14 14 13 13 13 14 14 14 14 13 11 8 7 7 8 9 10 11 11 15 17 17 15 15 13 13 13 12 11 10 11 10 10 9 7 7 7
10 16 18 17 15 16 19 18 16 15 13 12 13 14 14 15 15 14 14 11 10 9 8 9 10 10 10 11 13 14 15 16 14 14 14 13 12 11 10 10 8 7 6 6 6
5 15 15 18 17 16 15 17 17 15 12 13 12 12 14 14 15 15 14 12 12 11 11 10 10 10 9 10 11 12 14 14 13 13 13 12 10 10 9 8 6 6 6 6 7
4 10 18 18 18 17 16 15 15 14 15 13 12 11 12 15 15 16 15 14 13 12 12 11 10 10 10 10 11 12 12 12 11 11 11 11 10 10 10 9 8 8 8 7 7
5 6 16 23 22 20 18 16 16 16 15 14 13 12 12 13 16 17 17 16 15 14 13 12 13 13 13 13 12 11 11 12 13 13 12 11 11 11 11 9 7 8 9 8 8
7 5 11 19 25 23 21 20 17 15 15 14 14 14 13 14 16 17 16 15 14 14 14 15 15 14 13 13 13 14 15 15 16 16 15 12 12 12 12 10 7 7 9 10 10
11 8 7 13 19 25 25 21 18 16 15 16 16 17 16 16 16 16 16 16 16 16 15 16 16 17 17 17 16 16 17 17 17 15 13 11 10 10 11 10 8 7 6 7 8
17 12 10 11 18 20 23 24 23 19 18 16 16 17 18 17 19 17 18 18 18 19 19 20 20 19 18 18 18 19 19 17 16 15 12 10 9 8 8 7 6 5 5 6 8
21 19 16 15 15 16 19 19 19 22 21 16 18 19 20 21 21 22 21 21 21 20 20 20 20 19 19 20 19 19 18 16 14 12 11 10 8 8 6 5 5 5 6 7 9
25 24 22 22 20 20 19 22 24 23 20 20 21 23 24 24 23 24 23 23 21 21 21 20 19 19 19 19 19 17 17 15 12 11 9 8 7 6 6 5 5 6 6 6 8
32 30 29 30 27 26 25 27 28 25 25 23 25 25 23 26 24 24 24 23 21 21 21 20 19 19 18 17 17 15 14 12 12 11 8 6 4 2 2 3 4 6 6 7 9
40 38 34 37 35 33 33 35 26 27 28 25 26 26 26 25 24 25 24 24 23 21 20 19 18 18 18 17 15 15 14 13 12 8 6 3 1 2 5 5 5 6 7 9 11
49 45 43 44 41 41 42 37 30 30 29 28 28 28 28 25 25 24 25 24 22 21 21 19 17 17 17 17 15 15 14 13 11 10 8 5 5 6 7 7 7 8 8 9 12
58 53 53 50 47 47 46 39 33 33 32 33 30 30 30 28 28 26 25 24 23 22 22 20 19 18 18 18 18 16 16 16 12 10 9 9 9 9 10 10 9 10 10 12 14
67 62 59 57 56 52 45 39 38 39 37 36 34 30 29 32 30 29 26 28 27 26 24 24 22 21 21 20 20 19 17 16 14 13 14 13 13 12 13 13 13 12 13 15 16
72 69 68 67 64 58 50 45 44 44 43 41 39 37 35 33 33 31 31 31 31 30 31 28 25 25 22 21 20 20 20 20 19 18 18 16 18 16 16 14 16 14 16 17 17
78 77 78 76 69 63 57 52 49 47 47 45 42 42 41 39 36 35 35 33 33 33 31 32 28 27 26 25 26 24 25 24 24 22 22 17 22 23 20 16 17 17 18 19 19
86 81 83 81 75 69 63 58 54 53 51 48 47 45 41 40 38 36 36 34 35 35 34 34 32 31 31 30 30 29 30 28 25 26 25 22 23 28 27 18 21 20 22 22 22
92 88 87 86 80 77 71 65 61 59 57 53 49 41 40 40 38 33 35 36 36 35 36 36 35 36 36 35 34 34 33 29 27 28 28 30 24 29 29 26 26 24 26 26 26
97 94 91 89 86 84 76 72 66 61 58 56 51 47 47 42 40 42 44 44 45 45 44 44 41 40 41 40 40 42 30 32 32 32 32 33 27 33 30 30 29 28 30 30 31
Wind_Direction
135 132 126 137 147 154 161 160 162 163 162 158 158 153 146 130 106 81 76 68 59 67 82 86 95 106 110 115 122 122 117 117 120 124 124 122 121 119 114 105 97 89 85 81 75
175 142 137 144 151 155 159 157 160 161 164 162 165 163 155 141 119 91 84 77 64 62 84 90 97 98 102 108 117 117 114 114 115 119 122 122 119 114 108 98 88 82 81 79 79
197 165 155 156 158 159 163 161 164 165 165 169 173 174 169 158 135 113 95 88 78 68 81 89 94 98 102 111 111 110 109 113 119 122 122 120 119 114 107 97 88 85 84 80 79
207 194 176 170 170 168 167 172 171 172 176 176 181 181 182 171 152 133 110 97 88 74 78 90 96 99 106 108 107 110 115 117 119 121 122 120 118 111 100 93 91 88 83 78 76
215 209 200 189 184 180 179 180 182 183 183 185 186 188 184 175 164 148 130 113 101 91 83 94 100 105 108 109 114 117 118 120 120 121 122 119 113 109 98 90 85 81 80 79 75
222 213 209 206 197 191 190 189 192 191 190 192 195 196 193 187 177 167 150 132 121 113 108 94 95 102 108 114 119 120 122 128 128 127 124 120 116 104 100 91 87 85 83 78 66
227 218 214 212 207 203 200 197 195 197 199 201 205 205 204 201 195 186 176 163 150 137 123 111 109 103 107 110 115 119 121 122 123 124 118 111 114 109 108 102 94 81 73 65 55
230 220 214 216 210 210 209 207 203 204 204 207 209 212 212 207 206 203 199 194 186 174 144 132 124 119 118 116 115 112 117 117 114 119 122 121 120 116 107 99 93 85 67 51 37
229 218 214 214 213 210 215 215 215 216 213 212 212 210 210 206 208 207 206 200 197 184 161 144 134 130 126 119 117 119 121 117 119 123 123 118 118 115 106 99 94 86 75 50 28
240 216 211 213 215 214 214 216 217 218 209 204 200 202 204 202 203 197 194 189 185 178 169 156 142 140 134 127 126 129 129 124 126 126 124 123 121 112 106 103 95 78 67 49 35
242 221 211 209 214 216 216 211 203 198 195 198 197 198 197 193 189 187 185 181 174 175 174 164 154 151 147 148 147 141 136 130 134 133 127 123 115 110 101 94 96 90 82 75 68
244 226 212 212 216 218 220 216 207 202 199 200 197 193 192 189 184 180 179 178 174 175 170 167 162 161 161 165 161 147 138 135 132 128 122 115 113 107 106 104 94 87 82 77 73
243 234 221 213 217 219 221 220 214 212 207 202 202 194 189 185 182 178 178 177 175 177 175 169 166 163 161 156 146 136 136 135 128 127 125 125 124 122 111 107 99 89 84 82 78
243 225 229 221 216 220 224 222 221 217 210 206 207 197 192 185 180 179 181 178 181 176 167 160 155 149 146 141 140 141 142 137 132 126 129 119 120 110 100 97 93 90 78 69 60
248 235 222 229 224 219 223 226 226 224 216 209 198 191 192 182 185 181 180 179 176 168 162 157 153 149 147 145 149 148 144 139 136 131 119 115 111 107 92 79 72 71 62 49 39
242 238 230 231 232 227 219 218 215 216 205 202 195 189 184 182 179 181 179 175 169 167 162 159 158 157 158 160 160 157 153 150 144 134 123 112 109 108 104 91 68 59 50 41 27
234 237 233 234 227 224 221 211 205 197 196 194 193 191 187 184 183 183 179 176 173 170 169 167 166 165 170 172 170 166 163 164 160 156 144 124 115 106 93 63 43 40 39 21 3
227 229 230 236 230 222 218 217 202 195 200 200 199 196 194 189 188 187 184 182 179 179 178 178 178 178 178 177 178 176 174 170 168 166 160 146 142 88 353 339 359 10 4 351 349
224 227 225 230 233 227 218 210 207 208 203 203 203 202 202 199 195 193 192 191 189 190 191 190 188 189 191 192 191 190 190 185 181 180 188 211 237 299 302 309 322 333 333 332 337
228 224 225 228 228 230 219 205 215 219 218 212 208 205 205 206 206 205 204 201 201 202 202 202 201 204 205 204 202 205 208 201 201 205 219 243 266 278 292 301 307 314 318 328 333
232 226 225 228 227 228 225 213 215 221 221 222 217 210 211 210 211 212 210 211 214 213 211 211 212 216 215 213 212 212 214 217 220 232 251 267 272 279 285 290 292 301 307 317 329
234 230 228 228 229 229 226 225 219 218 220 224 223 222 222 220 218 220 219 221 217 217 217 219 219 220 219 220 219 219 221 226 240 253 265 271 274 273 278 282 283 294 302 312 323
232 231 230 230 229 231 226 223 223 223 219 221 223 223 223 225 226 225 225 226 225 222 221 224 222 224 224 226 229 230 230 237 247 257 267 269 275 270 268 269 276 288 298 311 320
229 230 231 230 229 229 228 222 222 223 227 222 223 226 225 227 227 227 227 228 227 228 228 229 225 228 230 232 234 234 238 244 254 259 262 269 270 278 275 274 276 287 299 308 315
228 228 231 232 233 230 228 226 221 223 226 226 225 227 228 230 230 227 226 226 228 230 231 233 230 232 234 236 238 240 245 250 258 262 268 266 270 278 276 281 282 290 298 301 307
226 228 229 230 230 231 229 226 224 223 224 227 227 227 231 231 235 233 229 229 231 231 231 232 231 235 237 239 242 244 248 254 261 265 269 273 274 268 276 283 285 290 292 299 306
225 226 229 229 227 229 230 230 227 226 228 226 226 224 228 229 229 229 228 227 227 225 227 228 229 232 237 242 245 250 256 260 260 266 269 270 275 274 276 280 286 291 291 297 301